Regional Weather Roundup
Issued by NWS Kansas City/Pleasant Hill, MO

Home | Current Version | Previous Version | Text Only | Print | Product List | Glossary On
Versions: 1 2 3 4 5 6 7 8 9 10 11 12 13 14 15 16 17 18 19 20 21 22 23 24 25 26 27 28 29 30 31 32 33 34 35 36 37 38 39 40 41 42 43 44 45 46 47 48 49 50
000
ASUS43 KEAX 272210
RWREAX

WEATHER ROUNDUP FOR EASTERN KANSAS AND NORTHWEST MISSOURI
NATIONAL WEATHER SERVICE KANSAS CITY/PLEASANT HILL MO
500 PM CDT MON JUL 27 2015

KSZ040-057-103>105-MOZ028-029-037-043-272300-
...KANSAS CITY METROPOLITAN AREA...

CITY           SKY/WX    TMP DP  RH WIND       PRES   REMARKS
K.C. INTL      PTSUNNY   88  78  72 S8        29.88F HX 101
K.C. DOWNTOWN  FAIR      92  76  59 S10       29.85F HX 104
LEES SUMMIT    FAIR      91  73  55 S9        29.88F HX  99
OLATHE - IXD   FAIR      94  74  52 S14       29.89F HX 104
OLATHE - OJC   FAIR      90  74  59 SW8       29.88F HX  99
LAWRENCE       FAIR      94  74  52 S9        29.86F HX 104

$$

MOZ001>008-011>017-020>025-030>033-038>040-044>046-053-054-272300-
...NORTHERN AND CENTRAL MISSOURI...

CITY           SKY/WX    TMP DP  RH WIND       PRES   REMARKS
ST. JOSEPH     FAIR      90  77  65 S10       29.86F HX 103
MOSBY          FAIR      90  75  62 S5        29.87F HX 100
WARRENSBURG    FAIR      90  73  58 S7        29.88F HX  98
WHITEMAN AFB   MOSUNNY   95  71  45 SW10      29.87F HX 102
CLINTON          N/A     93  77  59 S5        29.89F HX 107
SEDALIA        FAIR      95  73  48 S9        29.90F HX 104
WARSAW         NOT AVBL
CHILLICOTHE      N/A     92  79  65 VRB5      29.89S HX 108
KIRKSVILLE     PTSUNNY   74  69  85 VRB6G26   29.98R THUNDER

$$

MOZ041-047>049-056>058-063>065-088>090-097-272300-
...EASTERN AND SOUTHERN MISSOURI...

CITY           SKY/WX    TMP DP  RH WIND       PRES   REMARKS
ST. LOUIS INTL PTSUNNY   94  77  57 E9        29.90S HX 108
SPIRIT OF STL  PTSUNNY   93  77  59 CALM      29.87F THUNDER HX 107
COLUMBIA       FAIR      91  77  63 S7        29.90F HX 104
JEFFERSON CITY FAIR      93  72  50 SW9       29.87F HX 101
ROLLA          FAIR      92  74  55 SW8       29.91F HX 101
OSAGE BEACH    FAIR      95  73  49 SW8       29.91F HX 105
SPRINGFIELD    PTSUNNY   91  74  57 S6        29.93F HX 100
BRANSON        MOSUNNY   91  75  59 SE3       29.96F HX 102
JOPLIN         PTSUNNY   92  74  55 S8        29.91F HX 101
WEST PLAINS    PTSUNNY   93  74  53 SW7       29.95F HX 103

$$

IAZ060-094-KSZ022-034>040-054-083-096-NEZ052-066-093-272300-
...KANSAS...SOUTHEAST NEBRASKA AND IOWA...

CITY           SKY/WX    TMP DP  RH WIND       PRES   REMARKS
TOPEKA         FAIR      95  73  48 S17       29.85F HX 104
MANHATTAN      FAIR      96  72  45 S12       29.83F HX 104
EMPORIA        FAIR      97  65  34 S16       29.87F HX  99
CHANUTE        FAIR      94  73  50 S12       29.89F HX 103
WICHITA        FAIR      97  63  32 S17       29.85F HX  98
OMAHA          PTSUNNY   90  73  57 SE16      29.84F HX  98
LINCOLN        FAIR      91  74  57 S14       29.84F HX 100
FALLS CITY     FAIR      89  77  67 S9        29.85F HX 101
LAMONI         PTSUNNY   77  71  82 E10G21    29.95S
DES MOINES     LGT RAIN  73  68  84 E10       29.95F

$$




USA.gov is the U.S. government's official web portal to all federal, state and local government web resources and services.